Weather History for Lattakia, Syria

Change the Weather History Date:

Saturday, May 18, 2013

  Actual Average Record
Temperature  
Mean Temperature 70 °F -  
Max Temperature 80 °F - - ()
Min Temperature 60 °F - - ()
Cooling Degree Days 5    
Growing Degree Days 20 (Base 50)    
Moisture  
Dew Point 60 °F    
Average Humidity 68    
Maximum Humidity 88    
Minimum Humidity 36    
Precipitation  
Precipitation 0.00 in - - ()
Sea Level Pressure  
Sea Level Pressure 30.01 in    
Wind  
Wind Speed 4 mph ()    
Max Wind Speed 12 mph    
Max Gust Speed -    
Visibility 8.4 miles    
Events      
T = Trace of Precipitation, MM = Missing Value Source: Averaged Metar Reports

Daily Weather History Graph

Daily Weather History Graph

Search for Another Location

Airport:

Trip Planner

Search our weather history database for the weather conditions in past years. The results will help you decide how hot, cold, wet, or windy it might be!

Date:

Astronomy

May. 18, 2013 Rise Set
Actual Time 5:29 AM EEST 7:36 PM EEST
Civil Twilight 5:01 AM EEST 8:04 PM EEST
Nautical Twilight 4:26 AM EEST 8:39 PM EEST
Astronomical Twilight 3:49 AM EEST 9:16 PM EEST
Moon 12:33 PM EEST (5/18) 12:55 AM EEST (5/18)
Length of Visible Light 15h 03m
Length of Day
14h 06m
First Quarter, 52% of the Moon is Illuminated
May 18
First Quarter
May 25
Full
May 31
Last Quarter
Jun 8
New
Jun 16
First Quarter

Hourly Weather History & Observations

Time (EEST) Temp. Heat Index Dew Point Humidity Pressure Visibility Wind Dir Wind Speed Gust Speed Precip Events Conditions
12:00 AM 64.4 °F - 60.8 °F 88% 30.09 in - NE 3.5 mph - N/A   Clear
1:00 AM 64.4 °F - 60.8 °F 88% 30.04 in - East 5.8 mph - N/A   Clear
2:00 AM 62.6 °F - 59.0 °F 88% 30.04 in - North 4.6 mph - N/A   Clear
3:00 AM 68 °F - 64 °F 84% 30.03 in 9 mi Calm Calm - -  
3:00 AM 62.6 °F - 57.2 °F 82% 30.04 in - NE 5.8 mph - N/A   Clear
4:00 AM 60.8 °F - 57.2 °F 88% 30.01 in - ENE 4.6 mph - N/A   Clear
5:00 AM 60.8 °F - 53.6 °F 77% 30.01 in - NE 4.6 mph - N/A   Clear
6:00 AM 60.8 °F - 53.6 °F 77% 30.01 in - NE 6.9 mph - N/A   Clear
7:00 AM 62.6 °F - 55.4 °F 77% 30.04 in - ENE 4.6 mph - N/A   Clear
8:00 AM 69.8 °F - 57.2 °F 64% 30.04 in - NNE 4.6 mph - N/A   Clear
9:00 AM 72 °F - 51 °F 36% 30.03 in 9 mi Calm Calm - -   Clear
9:00 AM 71.6 °F - 59.0 °F 64% 30.04 in - NNE 2.3 mph - N/A   Clear
10:00 AM 75.2 °F - 60.8 °F 61% 30.04 in - Variable 3.5 mph - N/A   Clear
11:00 AM 77.0 °F - 62.6 °F 61% 30.04 in 6.2 mi West 8.1 mph - N/A   Scattered Clouds
12:00 PM 78.8 °F - 60.8 °F 54% 30.04 in - Variable 3.5 mph - N/A   Clear
1:00 PM 80.6 °F 81.5 °F 60.8 °F 51% 30.01 in - West 9.2 mph - N/A   Clear
2:00 PM 80.6 °F 81.5 °F 60.8 °F 51% 30.01 in - West 11.5 mph - N/A   Clear
3:00 PM 80 °F - 64 °F 49% 29.99 in 9 mi SSW 2.2 mph - -   Clear
3:00 PM 80.6 °F 81.1 °F 59.0 °F 48% 30.01 in - West 9.2 mph - N/A   Clear
4:00 PM 77.0 °F - 62.6 °F 61% 29.98 in - West 6.9 mph - N/A   Clear
5:00 PM 77.0 °F - 59.0 °F 54% 29.98 in - West 6.9 mph - N/A   Clear
6:00 PM 77.0 °F - 59.0 °F 54% 29.98 in - West 4.6 mph - N/A   Clear
7:00 PM 75.2 °F - 59.0 °F 57% 29.95 in - Variable 3.5 mph - N/A   Clear
8:00 PM 73.4 °F - 62.6 °F 69% 29.95 in - Variable 1.2 mph - N/A   Clear
9:00 PM 72 °F - 63 °F 66% 29.94 in 9 mi SE 2.2 mph - -  
9:00 PM 71.6 °F - 64.4 °F 78% 29.98 in - Variable 1.2 mph - N/A   Clear
10:00 PM 68.0 °F - 62.6 °F 83% 29.98 in - ENE 4.6 mph - N/A   Clear
11:00 PM 66.2 °F - 62.6 °F 88% 29.95 in - East 5.8 mph - N/A   Clear